[[{"header":{"parameterUnit":"m.s-1","parameterCategory":1,"la1":30.2991,"la2":30.254,"lo1":-89.0895,"lo2":-89.0444,"dy":0.0017,"dx":0.0017,"nx":28,"ny":28,"refTime":"2025-06-04T09:00:00:Z","depth":0,"parameterNumber":2,"parameterNumberName":"U-component_of_WINDS"},"data":[0,0,0,0,0,0,0,0,0,0,0,0,0,0,0,0,0,0,0,0,0,0,0,0,0,0,0,0,0,0,0,0,0,0,0,0,0,0,0,0,0,0,0,0,0,0,0,0,0,0,0,0,0,0,0,0,0,0,-4.1296,-4.1297,0,-4.1419,-4.142,-4.1421,-4.1353,-4.1349,-4.1346,-4.1342,-4.147,-4.1476,-4.1483,0,0,0,0,0,0,0,0,0,0,0,0,0,-4.1002,-4.1008,-4.1295,-4.1297,-4.1299,-4.1418,-4.142,-4.1422,-4.1353,-4.1349,-4.1345,-4.1341,-4.1468,-4.1475,-4.1483,0,0,0,0,0,0,0,0,0,0,0,0,0,-4.1128,-4.101,-4.1295,-4.1279,-4.1278,-4.1418,-4.142,-4.1422,-4.1354,-4.1349,-4.1344,-4.1339,-4.1465,-4.1474,-4.1484,-4.1647,0,0,-4.1514,-4.1519,0,0,0,0,0,0,0,0,-4.1121,-4.1139,-4.128,-4.128,-4.128,-4.1365,-4.1363,-4.1498,-4.1355,-4.1325,-4.1342,-4.1336,-4.1439,-4.1451,-4.1485,-4.1653,-4.1659,-4.1515,-4.1521,-4.1525,-4.1528,0,0,0,0,0,0,0,-4.1112,-4.1133,-4.1344,-4.1282,-4.1282,-4.1266,-4.1278,-4.1388,-4.1409,-4.1328,-4.1323,-4.1338,-4.1438,-4.1476,-4.1487,-4.166,-4.1515,-4.1524,-4.153,-4.1534,-4.1968,-4.1973,0,0,0,0,0,0,-4.1105,-4.1126,-4.134,-4.1348,-4.1186,-4.1275,-4.1289,-4.1343,-4.1408,-4.1413,-4.1343,-4.1335,-4.1461,-4.1476,-4.1492,-4.1685,-4.1525,-4.1534,-4.154,-4.1962,-4.1969,-4.1975,0,0,0,0,0,0,-4.1099,-4.1124,-4.1335,-4.1236,-4.1261,-4.1286,-4.1347,-4.1348,-4.1385,-4.1419,-4.1423,-4.1377,-4.1458,-4.1478,-4.1609,-4.1688,-4.1539,-4.1548,-4.1956,-4.1964,-4.1972,-4.2074,0,0,0,0,0,0,-4.1091,-4.1123,-4.1184,-4.1238,-4.1267,-4.145,-4.1352,-4.1354,-4.1402,-4.1393,-4.1452,-4.1457,-4.1455,-4.1594,-4.1619,-4.1699,-4.1556,-4.1948,-4.196,-4.1969,-4.2064,-4.2085,-4.2103,0,0,0,0,0,-4.108,-4.1208,-4.1188,-4.1214,-4.1345,-4.1455,-4.1471,-4.1466,-4.1409,-4.1471,-4.1493,-4.1455,-4.1677,-4.1608,-4.1635,-4.172,-4.1943,-4.1956,-4.1969,-4.2055,-4.2081,-4.2103,0,0,0,0,0,0,-4.1163,-4.1215,-4.1192,-4.1342,-4.1394,-4.1443,-4.152,-4.1494,-4.1564,-4.1552,-4.1544,-4.1558,-4.1694,-4.1721,-4.1643,-4.1881,-4.1801,-4.182,-4.1858,-4.1883,-4.1902,-4.1891,-4.1564,0,0,0,0,0,-4.1199,-4.1284,-4.1325,-4.1453,-4.148,-4.1497,-4.1544,-4.1536,-4.159,-4.1612,-4.1643,-4.1698,-4.1779,-4.1833,-4.191,-4.2069,-4.208,-4.2141,-4.216,-4.2176,-4.2191,-4.2276,-4.2303,-4.2017,-4.2017,-4.2017,0,0,-4.1274,-4.1313,-4.1366,-4.147,-4.151,-4.1598,-4.1515,-4.1612,-4.1677,-4.1627,-4.1751,-4.1777,-4.1837,-4.1982,-4.2047,-4.2008,-4.2274,-4.2193,-4.2205,-4.2211,-4.2292,-4.2319,-4.2343,-4.2025,-4.2024,-4.2023,0,0,-4.1453,-4.1492,-4.1602,-4.1644,-4.1705,-4.1715,-4.1742,-4.1795,-4.181,-4.1935,-4.1899,-4.1977,-4.2118,-4.2162,-4.2203,-4.2402,-4.2369,-4.2428,-4.253,-4.2612,-4.2635,-4.2654,-4.2723,-4.2748,-4.2443,-4.2444,-4.2444,0,-4.1538,-4.1668,-4.1662,-4.1761,-4.1807,-4.1767,-4.1878,-4.1919,-4.2003,-4.2036,-4.1992,-4.2168,-4.2206,-4.2359,-4.2408,-4.2444,-4.2473,-4.2419,-4.2632,-4.2652,-4.267,-4.2735,-4.2761,-4.245,-4.2449,-4.2449,-4.2448,0,-4.1768,-4.1859,-4.1941,-4.2022,-4.2078,-4.2183,-4.2193,-4.2251,-4.2239,-4.2254,-4.2382,-4.2427,-4.2512,-4.2549,-4.2538,-4.2702,-4.2675,-4.2632,-4.2551,-4.2704,-4.2765,-4.279,-4.2459,-4.2457,-4.2455,-4.2454,0,0,-4.1999,-4.2077,-4.2107,-4.2143,-4.2209,-4.2279,-4.2383,-4.2466,-4.2514,-4.2575,-4.266,-4.2782,-4.2743,-4.2789,-4.2784,-4.2857,-4.3009,-4.2804,-4.2806,-4.2838,-4.319,-4.3219,-4.3248,-4.299,-4.2994,-4.2998,-4.3184,0,-4.2181,-4.236,-4.2359,-4.2525,-4.2608,-4.2573,-4.2663,-4.2713,-4.2731,-4.2805,-4.2826,-4.2911,-4.2853,-4.2881,-4.2952,-4.2975,-4.3079,-4.2963,-4.3068,-4.3072,-4.3049,-4.328,-4.3312,-4.3484,-4.3208,-4.3212,-4.3215,0,-4.2415,-4.2482,-4.2657,-4.271,-4.2745,-4.2826,-4.2901,-4.2973,-4.303,-4.3038,-4.3091,-4.3075,-4.3181,-4.31,-4.3245,-4.3166,-4.321,-4.3228,-4.3235,-4.3241,-4.3149,-4.329,-4.3539,-4.3564,-4.3253,-4.325,-4.3247,0,-4.2563,-4.2697,-4.2818,-4.2851,-4.2917,-4.2975,-4.3005,-4.3057,-4.3107,-4.3174,-4.3206,-4.3286,-4.3328,-4.339,-4.3396,-4.3337,-4.3542,-4.3462,-4.355,-4.355,-4.3591,-4.3588,-4.3848,-4.3626,-4.3626,-4.3625,-4.3625,0,-4.2763,-4.287,-4.2885,-4.2959,-4.3079,-4.3078,-4.3196,-4.3222,-4.3269,-4.3347,-4.3323,-4.3398,-4.3402,-4.348,-4.3486,-4.3604,-4.3624,-4.3633,-4.3632,-4.3633,-4.3631,-4.3658,-4.3645,-4.3632,-4.3631,-4.3629,-4.3628,0,-4.2945,-4.296,-4.309,-4.3142,-4.3158,-4.3244,-4.3289,-4.336,-4.3377,-4.3477,-4.35,-4.3526,-4.3616,-4.3629,-4.3734,-4.3738,-4.3879,-4.3868,-4.3859,-4.3856,-4.3942,-4.3933,-4.4225,-4.4263,-4.4021,-4.4023,-4.4025,0,-4.307,-4.3151,-4.3213,-4.3264,-4.3297,-4.338,-4.343,-4.3434,-4.3488,-4.356,-4.3622,-4.3709,-4.3778,-4.3923,-4.3952,-4.4032,-4.402,-4.4118,-4.4032,-4.403,-4.4018,-4.4011,-4.4019,-4.4133,-4.4135,-4.4138,-4.4139,0,-4.3288,-4.3292,-4.3366,-4.3443,-4.3505,-4.3566,-4.3624,-4.3667,-4.3678,-4.374,-4.3831,-4.3885,-4.3992,-4.4078,-4.4158,-4.419,-4.4167,-4.4167,-4.4191,-4.419,-4.418,-4.4183,-4.39,-4.4159,-4.4157,-4.4156,-4.4155,-4.4154,-4.3443,-4.3514,-4.3568,-4.3651,-4.3695,-4.375,-4.3819,-4.3845,-4.392,-4.4007,-4.4006,-4.4105,-4.4161,-4.4266,-4.4304,-4.4382,-4.435,-4.4386,-4.4394,-4.4402,-4.4409,-4.4171,-4.4397,-4.4397,-4.4396,-4.4396,-4.4395,0,-4.3657,-4.3691,-4.3768,-4.3849,-4.3915,-4.3889,-4.3952,-4.4008,-4.4096,-4.415,-4.4219,-4.4324,-4.4408,-4.4445,-4.4527,-4.4583,-4.4574,-4.4604,-4.4598,-4.4605,-4.4434,-4.4403,-4.461,-4.461,-4.461,-4.461,-4.4609,-4.4609,-4.3776,-4.3893,-4.3904,-4.4043,-4.4076,-4.4173,-4.4211,-4.4261,-4.4304,-4.4422,-4.4491,-4.4515,-4.4562,-4.4648,-4.4725,-4.4733,-4.4763,-4.4798,-4.4801,-4.4639,-4.4618,-4.4597,-4.4567,-4.4805,-4.4806,-4.4966,-4.4967,-4.4968]},{"header":{"parameterUnit":"m.s-1","parameterCategory":1,"la1":30.2991,"la2":30.254,"lo1":-89.0895,"lo2":-89.0444,"dy":0.0017,"dx":0.0017,"nx":28,"ny":28,"refTime":"2025-06-04T09:00:00:Z","depth":0,"parameterNumber":3,"parameterNumberName":"V-component_of_WINDS"},"data":[0,0,0,0,0,0,0,0,0,0,0,0,0,0,0,0,0,0,0,0,0,0,0,0,0,0,0,0,0,0,0,0,0,0,0,0,0,0,0,0,0,0,0,0,0,0,0,0,0,0,0,0,0,0,0,0,0,0,0.8917,0.8915,0,0.8736,0.8734,0.8732,0.8551,0.8549,0.8546,0.8544,0.8355,0.8353,0.835,0,0,0,0,0,0,0,0,0,0,0,0,0,0.9103,0.9101,0.8917,0.8915,0.8912,0.8736,0.8734,0.8731,0.8552,0.8549,0.8546,0.8543,0.8356,0.8353,0.835,0,0,0,0,0,0,0,0,0,0,0,0,0,0.8983,0.91,0.8917,0.8802,0.8789,0.8737,0.8734,0.8731,0.8552,0.8549,0.8545,0.8542,0.8357,0.8353,0.8349,0.8395,0,0,0.8336,0.8335,0,0,0,0,0,0,0,0,0.899,0.8976,0.8821,0.8809,0.8796,0.8663,0.873,0.8618,0.8553,0.8642,0.8544,0.854,0.846,0.8447,0.8421,0.8386,0.8378,0.8336,0.8333,0.8332,0.833,0,0,0,0,0,0,0,0.8998,0.8983,0.8845,0.8819,0.8803,0.8758,0.8737,0.8708,0.8573,0.8634,0.8621,0.8602,0.8453,0.8426,0.8415,0.8375,0.8336,0.8332,0.833,0.8328,0.8369,0.8372,0,0,0,0,0,0,0.9025,0.8991,0.8851,0.884,0.8886,0.8757,0.8734,0.8709,0.8573,0.8549,0.8605,0.8594,0.8435,0.8421,0.8408,0.8452,0.8332,0.8328,0.8325,0.8365,0.8369,0.8373,0,0,0,0,0,0,0.9029,0.9014,0.8858,0.8911,0.8888,0.8758,0.8732,0.8707,0.868,0.8551,0.8526,0.8603,0.8431,0.8414,0.84,0.8443,0.8326,0.8322,0.8361,0.8366,0.8371,0.8542,0,0,0,0,0,0,0.9036,0.9017,0.9033,0.8913,0.8886,0.8854,0.8734,0.8706,0.8674,0.8658,0.8542,0.852,0.8427,0.8407,0.8396,0.8435,0.8319,0.8356,0.8363,0.837,0.8532,0.8553,0.8571,0,0,0,0,0,0.9043,0.9088,0.9035,0.9019,0.8904,0.8857,0.8841,0.8735,0.8678,0.8693,0.8611,0.8523,0.8441,0.8407,0.8393,0.8432,0.8353,0.8361,0.8369,0.8523,0.8549,0.857,0,0,0,0,0,0,0.9214,0.907,0.901,0.9018,0.8952,0.8827,0.8842,0.8765,0.8713,0.87,0.8569,0.8544,0.8545,0.8487,0.8452,0.8469,0.8385,0.839,0.8507,0.853,0.8549,0.8562,0.8315,0,0,0,0,0,0.9254,0.9229,0.9103,0.9122,0.9092,0.8974,0.8949,0.8873,0.8799,0.8769,0.8685,0.8616,0.8574,0.8549,0.8503,0.8523,0.8495,0.8543,0.8563,0.8579,0.8585,0.8591,0.8611,0.84,0.84,0.84,0,0,0.9333,0.9251,0.9243,0.9154,0.9094,0.907,0.8951,0.893,0.8911,0.8765,0.8747,0.8684,0.8597,0.8601,0.8598,0.8552,0.8637,0.8589,0.8603,0.86,0.8601,0.8622,0.8639,0.8405,0.8404,0.8403,0,0,0.9466,0.9402,0.9411,0.9354,0.9264,0.9186,0.9189,0.9076,0.9029,0.9009,0.8899,0.8874,0.8805,0.8747,0.8709,0.8823,0.8741,0.8812,0.8912,0.892,0.8936,0.895,0.899,0.9006,0.8819,0.8819,0.8819,0,0.9576,0.9536,0.9425,0.9411,0.9375,0.9245,0.9252,0.9201,0.9102,0.908,0.903,0.8941,0.8874,0.8862,0.889,0.8864,0.8862,0.8824,0.8943,0.8956,0.8967,0.9004,0.9019,0.8828,0.8827,0.8826,0.8826,0,0.9676,0.965,0.9668,0.9577,0.9543,0.954,0.9427,0.9406,0.9334,0.9261,0.9242,0.9157,0.9092,0.9084,0.9012,0.9062,0.9037,0.8968,0.8879,0.8999,0.9031,0.9044,0.8842,0.8838,0.8836,0.8833,0,0,0.9909,0.9758,0.9766,0.9724,0.9617,0.9594,0.9586,0.9524,0.9508,0.9444,0.9433,0.9379,0.9314,0.9272,0.9193,0.92,0.9295,0.9129,0.9125,0.9162,0.9344,0.9396,0.9414,0.9241,0.9243,0.9245,0.9351,0,1.0022,1.0,0.99,0.9907,0.9882,0.9759,0.9751,0.9685,0.9617,0.9584,0.9508,0.9472,0.939,0.9363,0.9365,0.9284,0.933,0.9274,0.9228,0.9227,0.9252,0.9431,0.9486,0.959,0.9363,0.9365,0.9366,0,1.0151,1.0098,1.0103,0.9998,0.9983,0.9979,0.9914,0.9885,0.9807,0.9757,0.9711,0.9624,0.9607,0.9527,0.9501,0.9466,0.9441,0.9399,0.94,0.939,0.9303,0.9425,0.9621,0.9637,0.9385,0.9384,0.9382,0,1.032,1.0249,1.0243,1.0211,1.0088,1.0087,1.0036,0.9955,0.9924,0.9868,0.9846,0.9789,0.9757,0.9714,0.9613,0.9564,0.96,0.9511,0.9556,0.9559,0.9567,0.9568,0.9761,0.9555,0.9554,0.9554,0.9554,0,1.0456,1.0464,1.0317,1.0314,1.0319,1.0204,1.0212,1.0148,1.0078,1.0059,0.9949,0.9933,0.9801,0.9771,0.9692,0.9683,0.9669,0.9627,0.9606,0.9636,0.9642,0.9617,0.9607,0.9558,0.9557,0.9556,0.9556,0,1.0644,1.0547,1.0532,1.0418,1.039,1.0399,1.03,1.0292,1.0218,1.0195,1.0183,1.0067,1.0025,0.9921,0.9851,0.9798,0.981,0.9772,0.9837,0.9823,0.9874,0.9871,1.0057,1.0075,0.986,0.9862,0.9864,0,1.0737,1.074,1.0628,1.0608,1.0562,1.0531,1.05,1.0388,1.036,1.0273,1.0275,1.0225,1.0178,1.0117,1.0026,0.9972,0.9931,1.0,0.9922,0.9953,0.9931,0.9931,0.9931,1.0017,1.002,1.0022,1.0024,0,1.0911,1.0864,1.0824,1.0768,1.0735,1.0685,1.0629,1.0619,1.0492,1.0467,1.0424,1.0388,1.0318,1.027,1.0202,1.0148,1.0065,1.005,1.0057,1.0088,1.0125,1.0105,0.9883,1.0045,1.0043,1.0042,1.0041,1.004,1.1053,1.1051,1.0972,1.0931,1.0878,1.0829,1.0815,1.0741,1.0704,1.0639,1.0575,1.0539,1.0461,1.0362,1.0314,1.0283,1.0241,1.0252,1.0254,1.0258,1.0272,1.0132,1.0271,1.027,1.0269,1.0269,1.0268,0,1.1221,1.1165,1.1129,1.1055,1.1024,1.0952,1.0886,1.0864,1.0834,1.0769,1.0727,1.0678,1.0631,1.0537,1.0482,1.0475,1.0436,1.0464,1.0463,1.0451,1.0314,1.0312,1.0497,1.0497,1.0497,1.0497,1.0497,1.0497,1.1304,1.1297,1.124,1.1205,1.1147,1.1112,1.1081,1.1035,1.0983,1.0934,1.0895,1.0835,1.0758,1.0697,1.065,1.0624,1.0608,1.0649,1.061,1.0483,1.0461,1.044,1.0438,1.0646,1.0647,1.0749,1.0751,1.0751]}]]